Regional Weather Roundup
Issued by NWS

Home | Current Version | Previous Version | Graphics & Text | Print | Product List | Glossary On
Versions: 1 2 3 4 5 6 7 8 9 10 11 12 13 14 15 16 17 18 19 20 21 22 23 24 25 26 27 28 29 30 31 32 33 34 35 36 37 38 39 40 41 42 43 44 45 46 47 48 49 50
000
ASUS45 KABQ 241610
RWRNM
NEW MEXICO REGIONAL WEATHER ROUNDUP
NATIONAL WEATHER SERVICE ALBUQUERQUE NM
900 AM MST FRI NOV 24 2017

NOTE: "FAIR" MEANS FEW OR NO CLOUDS BELOW 12,000 FEET AGL WITH NO
       SIGNIFICANT WEATHER OR OBSTRUCTIONS TO VISION.

      THIS PRODUCT IS RELEASED AS TWO VERSIONS.  ONE VERSION NEAR
      THE TOP OF THE HOUR CONTAINING PRELIMINARY DATA FROM ALBUQUERQUE
      AND OTHER STATIONS.  A FINAL VERSION WITH ADDITIONAL DATA IS
      ISSUED ABOUT 10 MINUTES AFTER THE HOUR.

NMZ501-503-504-510>518-241700-
NORTHWEST PLATEAU/NORTHCENTRAL MOUNTAINS

CITY           SKY/WX    TMP DP  RH WIND       PRES   REMARKS
FARMINGTON     FAIR      37  26  64 E9        30.15S WCI  30
LOS ALAMOS     FAIR      48  24  39 CALM      30.16F
SANTA FE       FAIR      47  30  51 N8        30.12S
TAOS           FAIR      43  25  49 CALM      30.17F
ANGEL FIRE     FAIR      41  22  45 SE10      30.16S

$$
NMZ402-403-502-505>509-241700-
WESTCENTRAL MOUNTAINS/SOUTHWEST MOUNTAINS

CITY           SKY/WX    TMP DP  RH WIND       PRES   REMARKS
GALLUP         FAIR      38  22  52 CALM      30.21R
GRANTS         FAIR      35  22  59 NW16      30.21R WCI  25
SILVER CITY    FAIR      57  26  30 W12       30.15R

$$
NMZ407-409-411-412-241700-
SOUTHERN DESERTS

CITY           SKY/WX    TMP DP  RH WIND       PRES   REMARKS
DEMING         FAIR      55  28  35 SW7       30.11F
LAS CRUCES     FAIR      55  26  31 CALM      30.12S
HOLLOMAN AFB   FAIR      51  28  41 S3        30.10F
ALAMOGORDO     FAIR      50  27  40 S6        30.09F
T OR C         FAIR      53  26  35 CALM      30.10S

$$
NMZ519>523-241700-
CENTRAL VALLEYS/CENTRAL HIGHLANDS

CITY           SKY/WX    TMP DP  RH WIND       PRES   REMARKS
ALBUQUERQUE    FAIR      45  29  53 NW3       30.14R
DOUBLE EAGLE   MOSUNNY   50  30  46 VRB3      30.14S
MORIARTY ARPT  FAIR      53  29  40 CALM      30.13F
CLINES CORNERS FAIR      51  27  39 NW21      30.12S
BELEN          FAIR      48  27  43 CALM      30.14S
SOCORRO        FAIR      44  27  51 N3        30.14R

$$
NMZ524>526-539-540-241700-
SOUTHCENTRAL MOUNTAINS

CITY           SKY/WX    TMP DP  RH WIND       PRES   REMARKS
RUIDOSO        FAIR      57  25  28 W3        30.15S

$$
NMZ527>531-241700-
NORTHEAST HIGHLANDS/NORTHEAST PLAINS

CITY           SKY/WX    TMP DP  RH WIND       PRES   REMARKS
LAS VEGAS      FAIR      51  21  30 S6        30.05R
RATON          FAIR      45  25  45 N5        29.99F
CLAYTON        FAIR      66  21  18 W9        29.87S

$$
NMZ532>537-241700-
EASTCENTRAL PLAINS

CITY           SKY/WX    TMP DP  RH WIND       PRES   REMARKS
SANTA ROSA     FAIR      62  26  25 NW9       29.96S
TUCUMCARI      FAIR      63  29  27 W12       29.86F
CANNON AFB     FAIR      59  29  32 W18G26    29.93R
CLOVIS AIRPORT FAIR      59  30  33 W20G28    29.92S

$$
NMZ028-029-538-241700-
SOUTHEAST PLAINS

CITY           SKY/WX    TMP DP  RH WIND       PRES   REMARKS
ROSWELL        FAIR      50  31  48 CALM      29.96S
ARTESIA        FAIR      61  28  29 CALM      29.97S
CARLSBAD       FAIR      54  36  50 CALM      29.96R
HOBBS          SUNNY     64  30  27 SW8       29.96S


$$




USA.gov is the U.S. government's official web portal to all federal, state and local government web resources and services.